| time (UTC) | temp F | wind direction | speed MPH | gust MPH | rain 1hr in | rain 24hr in | rain mn in | humidity % | barometer mb |
| 20260510201006 | 50 | 349 | 3.0 | 10.0 | 0.00 | 0.00 | 0.00 | 75 | 1011.7 |
| 20260510194006 | 51 | 2 | 5.0 | 9.0 | 0.00 | 0.00 | 0.00 | 73 | 1011.7 |
| 20260510193506 | 51 | 352 | 4.0 | 9.0 | 0.00 | 0.00 | 0.00 | 72 | 1011.7 |
| 20260510193006 | 51 | 2 | 4.0 | 12.0 | 0.00 | 0.00 | 0.00 | 72 | 1011.7 |
| 20260510185006 | 52 | 5 | 5.0 | 10.0 | 0.00 | 0.00 | 0.00 | 70 | 1011.8 |
| 20260510184506 | 52 | 1 | 4.0 | 10.0 | 0.00 | 0.00 | 0.00 | 70 | 1011.9 |
| 20260510184006 | 53 | 21 | 5.0 | 9.0 | 0.00 | 0.00 | 0.00 | 69 | 1012.0 |
| 20260510183506 | 53 | 12 | 7.0 | 13.0 | 0.00 | 0.00 | 0.00 | 70 | 1011.9 |
| 20260510183006 | 53 | 3 | 5.0 | 10.0 | 0.00 | 0.00 | 0.00 | 71 | 1011.8 |
| 20260510165506 | 56 | 7 | 10.0 | 16.0 | 0.00 | 0.00 | 0.00 | 65 | 1012.1 |
| 20260510165006 | 56 | 29 | 6.0 | 15.0 | 0.00 | 0.00 | 0.00 | 66 | 1012.1 |
| 20260510164505 | 56 | 353 | 9.0 | 15.0 | 0.00 | 0.00 | 0.00 | 65 | 1012.2 |
| 20260510162006 | 57 | 4 | 9.0 | 16.0 | 0.00 | 0.00 | 0.00 | 65 | 1012.5 |
| 20260510161506 | 57 | 0 | 7.0 | 13.0 | 0.00 | 0.00 | 0.00 | 65 | 1012.6 |
| 20260510161006 | 57 | 15 | 5.0 | 15.0 | 0.00 | 0.00 | 0.00 | 64 | 1012.6 |
| 20260510152006 | 59 | 40 | 6.0 | 14.0 | 0.00 | 0.00 | 0.00 | 63 | 1012.7 |
| 20260510151505 | 59 | 20 | 8.0 | 16.0 | 0.00 | 0.00 | 0.00 | 62 | 1012.7 |
| 20260510151005 | 59 | 0 | 11.0 | 20.0 | 0.00 | 0.00 | 0.00 | 61 | 1012.7 |
| 20260510150006 | 59 | 14 | 5.0 | 17.0 | 0.00 | 0.00 | 0.00 | 61 | 1013.0 |
| 20260510145506 | 60 | 22 | 6.0 | 17.0 | 0.00 | 0.00 | 0.00 | 60 | 1013.1 |
| 20260510145006 | 60 | 35 | 6.0 | 14.0 | 0.00 | 0.00 | 0.00 | 59 | 1013.0 |
| 20260510144505 | 61 | 58 | 7.0 | 12.0 | 0.00 | 0.00 | 0.00 | 58 | 1013.1 |
| 20260510143505 | 61 | 8 | 6.0 | 12.0 | 0.00 | 0.00 | 0.00 | 58 | 1013.2 |
| 20260510142505 | 61 | 21 | 6.0 | 15.0 | 0.00 | 0.00 | 0.00 | 58 | 1013.2 |
| 20260510142005 | 61 | 38 | 6.0 | 13.0 | 0.00 | 0.00 | 0.00 | 56 | 1013.2 |
| 20260510134505 | 61 | 20 | 7.0 | 15.0 | 0.00 | 0.00 | 0.00 | 55 | 1013.6 |
| 20260510124005 | 61 | 17 | 5.0 | 10.0 | 0.00 | 0.00 | 0.00 | 56 | 1014.2 |
| 20260510123505 | 60 | 45 | 6.0 | 14.0 | 0.00 | 0.00 | 0.00 | 58 | 1014.2 |
| 20260510123006 | 61 | 17 | 7.0 | 16.0 | 0.00 | 0.00 | 0.00 | 58 | 1014.2 |
| 20260510122505 | 61 | 22 | 5.0 | 10.0 | 0.00 | 0.00 | 0.00 | 57 | 1014.3 |
| 20260510120004 | 60 | 29 | 6.0 | 12.0 | 0.00 | 0.00 | 0.00 | 57 | 1014.5 |
| 20260510112005 | 60 | 27 | 4.0 | 12.0 | 0.00 | 0.00 | 0.00 | 58 | 1014.8 |
| 20260510111504 | 60 | 24 | 6.0 | 13.0 | 0.00 | 0.00 | 0.00 | 59 | 1014.9 |
| 20260510111004 | 60 | 6 | 7.0 | 15.0 | 0.00 | 0.00 | 0.00 | 61 | 1015.0 |
| 20260510110005 | 59 | 2 | 8.0 | 13.0 | 0.00 | 0.00 | 0.00 | 60 | 1015.1 |
| 20260510105504 | 60 | 15 | 6.0 | 13.0 | 0.00 | 0.00 | 0.00 | 60 | 1015.2 |
| 20260510105007 | 60 | 31 | 6.0 | 12.0 | 0.00 | 0.00 | 0.00 | 60 | 1015.2 |
| 20260510104506 | 59 | 359 | 6.0 | 12.0 | 0.00 | 0.00 | 0.00 | 64 | 1015.3 |
| 20260510104005 | 59 | 357 | 8.0 | 15.0 | 0.00 | 0.00 | 0.00 | 67 | 1015.3 |
| 20260510103005 | 59 | 10 | 6.0 | 12.0 | 0.00 | 0.00 | 0.00 | 62 | 1015.3 |
| 20260510102504 | 59 | 3 | 6.0 | 10.0 | 0.00 | 0.00 | 0.00 | 68 | 1015.3 |
| 20260510102004 | 59 | 6 | 7.0 | 14.0 | 0.00 | 0.00 | 0.00 | 68 | 1015.4 |
| 20260510095004 | 58 | 9 | 7.0 | 12.0 | 0.00 | 0.00 | 0.00 | 69 | 1015.6 |
| 20260510094504 | 58 | 358 | 6.0 | 12.0 | 0.00 | 0.00 | 0.00 | 70 | 1015.7 |
| 20260510092004 | 57 | 0 | 5.0 | 16.0 | 0.00 | 0.00 | 0.00 | 72 | 1015.8 |
| 20260510091004 | 58 | 350 | 8.0 | 13.0 | 0.00 | 0.00 | 0.00 | 70 | 1015.8 |
| 20260510085504 | 57 | 3 | 6.0 | 14.0 | 0.00 | 0.00 | 0.00 | 72 | 1015.8 |
| 20260510085005 | 58 | 6 | 7.0 | 12.0 | 0.00 | 0.00 | 0.00 | 72 | 1015.8 |
| 20260510083508 | 58 | 358 | 6.0 | 13.0 | 0.00 | 0.00 | 0.00 | 69 | 1016.0 |
| 20260510083008 | 57 | 318 | 5.0 | 10.0 | 0.00 | 0.00 | 0.00 | 67 | 1016.1 |
| 20260510082508 | 57 | 5 | 7.0 | 13.0 | 0.00 | 0.00 | 0.00 | 66 | 1016.1 |
| 20260510081009 | 57 | 347 | 4.0 | 12.0 | 0.00 | 0.00 | 0.00 | 67 | 1016.2 |
| 20260510073508 | 56 | 73 | 3.0 | 10.0 | 0.00 | 0.00 | 0.00 | 66 | 1016.3 |
| 20260510073008 | 56 | 6 | 4.0 | 10.0 | 0.00 | 0.00 | 0.00 | 66 | 1016.3 |
| 20260510071507 | 56 | 343 | 5.0 | 10.0 | 0.00 | 0.00 | 0.00 | 69 | 1016.3 |
| 20260510071008 | 55 | 36 | 5.0 | 10.0 | 0.00 | 0.00 | 0.00 | 71 | 1016.3 |
| 20260510070008 | 55 | 353 | 5.0 | 12.0 | 0.00 | 0.00 | 0.00 | 73 | 1016.2 |
| 20260510065508 | 54 | 5 | 4.0 | 12.0 | 0.00 | 0.00 | 0.00 | 74 | 1016.2 |
| 20260510063008 | 54 | 0 | 6.0 | 12.0 | 0.00 | 0.00 | 0.00 | 76 | 1016.3 |
| 20260510062507 | 53 | 355 | 5.0 | 12.0 | 0.00 | 0.00 | 0.00 | 76 | 1016.3 |
| 20260510062008 | 53 | 11 | 6.0 | 12.0 | 0.00 | 0.00 | 0.00 | 77 | 1016.3 |
| 20260510061509 | 53 | 17 | 5.0 | 10.0 | 0.00 | 0.00 | 0.00 | 78 | 1016.3 |
| 20260510061008 | 53 | 3 | 4.0 | 12.0 | 0.00 | 0.00 | 0.00 | 77 | 1016.3 |
| 20260510054008 | 51 | 4 | 3.0 | 8.0 | 0.00 | 0.00 | 0.00 | 79 | 1016.3 |
| 20260510053507 | 51 | 4 | 3.0 | 7.0 | 0.00 | 0.00 | 0.00 | 79 | 1016.3 |
| 20260510053010 | 51 | 2 | 6.0 | 10.0 | 0.00 | 0.00 | 0.00 | 79 | 1016.3 |
| 20260510052508 | 51 | 0 | 4.0 | 8.0 | 0.00 | 0.00 | 0.00 | 80 | 1016.3 |
| 20260510052008 | 51 | 0 | 5.0 | 8.0 | 0.00 | 0.00 | 0.00 | 80 | 1016.3 |
| 20260510051507 | 50 | 355 | 6.0 | 9.0 | 0.00 | 0.00 | 0.00 | 79 | 1016.3 |
| 20260510051009 | 50 | 354 | 5.0 | 9.0 | 0.00 | 0.00 | 0.00 | 79 | 1016.3 |
| 20260510045008 | 50 | 3 | 3.0 | 8.0 | 0.00 | 0.00 | 0.00 | 79 | 1016.3 |
| 20260510044508 | 50 | 3 | 3.0 | 6.0 | 0.00 | 0.00 | 0.00 | 79 | 1016.3 |
| 20260510043008 | 50 | 3 | 3.0 | 7.0 | 0.00 | 0.00 | 0.00 | 79 | 1016.2 |
| 20260510042508 | 50 | 3 | 3.0 | 8.0 | 0.00 | 0.00 | 0.00 | 79 | 1016.2 |
| 20260510042008 | 50 | 9 | 5.0 | 9.0 | 0.00 | 0.00 | 0.00 | 79 | 1016.1 |
| 20260510035507 | 50 | 348 | 3.0 | 7.0 | 0.00 | 0.00 | 0.00 | 80 | 1016.1 |
| 20260510035008 | 50 | 355 | 5.0 | 10.0 | 0.00 | 0.00 | 0.00 | 80 | 1016.2 |
| 20260510034508 | 50 | 333 | 4.0 | 7.0 | 0.00 | 0.00 | 0.00 | 81 | 1016.3 |
| 20260510034007 | 50 | 0 | 4.0 | 8.0 | 0.00 | 0.00 | 0.00 | 81 | 1016.3 |
| 20260510033008 | 50 | 0 | 5.0 | 10.0 | 0.00 | 0.00 | 0.00 | 82 | 1016.2 |
| 20260510032507 | 50 | 355 | 5.0 | 10.0 | 0.00 | 0.00 | 0.00 | 83 | 1016.3 |
| 20260510032008 | 50 | 350 | 5.0 | 10.0 | 0.00 | 0.00 | 0.00 | 83 | 1016.3 |
| 20260510031508 | 50 | 14 | 4.0 | 8.0 | 0.00 | 0.00 | 0.00 | 83 | 1016.3 |
| 20260510025007 | 50 | 12 | 4.0 | 6.0 | 0.00 | 0.00 | 0.00 | 84 | 1016.5 |
| 20260510024507 | 50 | 17 | 5.0 | 7.0 | 0.00 | 0.00 | 0.00 | 84 | 1016.6 |
| 20260510024008 | 51 | 5 | 4.0 | 8.0 | 0.00 | 0.00 | 0.00 | 84 | 1016.6 |
| 20260510023507 | 51 | 350 | 5.0 | 7.0 | 0.00 | 0.00 | 0.00 | 84 | 1016.7 |
| 20260510023007 | 51 | 349 | 5.0 | 7.0 | 0.00 | 0.00 | 0.00 | 84 | 1016.6 |
| 20260510022507 | 51 | 346 | 5.0 | 8.0 | 0.00 | 0.00 | 0.00 | 84 | 1016.5 |
| 20260510022007 | 51 | 355 | 3.0 | 7.0 | 0.00 | 0.00 | 0.00 | 84 | 1016.4 |
| 20260510021507 | 51 | 355 | 5.0 | 6.0 | 0.00 | 0.00 | 0.00 | 83 | 1016.4 |
| 20260510021008 | 51 | 355 | 3.0 | 6.0 | 0.00 | 0.00 | 0.00 | 83 | 1016.4 |
| 20260510015007 | 51 | 355 | 5.0 | 8.0 | 0.00 | 0.00 | 0.00 | 82 | 1016.5 |
| 20260510014507 | 51 | 355 | 5.0 | 7.0 | 0.00 | 0.00 | 0.00 | 82 | 1016.6 |
| 20260510013507 | 51 | 11 | 3.0 | 5.0 | 0.00 | 0.00 | 0.00 | 81 | 1016.7 |
| 20260510013007 | 52 | 1 | 5.0 | 9.0 | 0.00 | 0.00 | 0.00 | 81 | 1016.6 |
| 20260510012507 | 52 | 3 | 6.0 | 9.0 | 0.00 | 0.00 | 0.00 | 81 | 1016.5 |
| 20260510005007 | 52 | 12 | 4.0 | 9.0 | 0.00 | 0.00 | 0.00 | 80 | 1016.8 |
| 20260510004507 | 52 | 358 | 3.0 | 6.0 | 0.00 | 0.00 | 0.00 | 80 | 1016.8 |
| 20260510004008 | 52 | 344 | 3.0 | 6.0 | 0.00 | 0.00 | 0.00 | 80 | 1016.8 |
| 20260510000007 | 52 | 3 | 5.0 | 8.0 | 0.00 | 0.00 | 0.00 | 80 | 1016.8 |
| 20260509235506 | 52 | 10 | 3.0 | 7.0 | 0.00 | 0.00 | 0.00 | 80 | 1016.9 |
| 20260509235007 | 52 | 11 | 0.0 | 3.0 | 0.00 | 0.00 | 0.00 | 80 | 1017.0 |
| 20260509234506 | 52 | 11 | 2.0 | 3.0 | 0.00 | 0.00 | 0.00 | 80 | 1017.0 |
| 20260509234007 | 52 | 11 | 2.0 | 5.0 | 0.00 | 0.00 | 0.00 | 80 | 1017.1 |
| 20260509233507 | 52 | 11 | 2.0 | 6.0 | 0.00 | 0.00 | 0.00 | 80 | 1017.0 |
| 20260509233006 | 52 | 11 | 3.0 | 7.0 | 0.00 | 0.00 | 0.00 | 80 | 1016.9 |
| 20260509232506 | 52 | 12 | 3.0 | 7.0 | 0.00 | 0.00 | 0.00 | 79 | 1016.9 |
| 20260509224506 | 53 | 12 | 3.0 | 6.0 | 0.00 | 0.00 | 0.00 | 79 | 1017.1 |
| 20260509224007 | 53 | 13 | 2.0 | 5.0 | 0.00 | 0.00 | 0.00 | 79 | 1017.1 |
| 20260509222506 | 53 | 11 | 2.0 | 7.0 | 0.00 | 0.00 | 0.00 | 79 | 1017.2 |
| 20260509210007 | 55 | 4 | 1.0 | 3.0 | 0.00 | 0.00 | 0.00 | 70 | 1017.3 |
| 20260509205506 | 55 | 3 | 2.0 | 5.0 | 0.00 | 0.00 | 0.00 | 71 | 1017.1 |
| 20260509204006 | 56 | 3 | 2.0 | 3.0 | 0.00 | 0.00 | 0.00 | 71 | 1017.0 |
| 20260509203506 | 56 | 9 | 2.0 | 3.0 | 0.00 | 0.00 | 0.00 | 71 | 1017.0 |
| 20260509203007 | 56 | 9 | 2.0 | 3.0 | 0.00 | 0.00 | 0.00 | 70 | 1016.9 |
| 20260509202506 | 56 | 9 | 0.0 | 3.0 | 0.00 | 0.00 | 0.00 | 70 | 1016.9 |
| 20260509202006 | 57 | 9 | 1.0 | 3.0 | 0.00 | 0.00 | 0.00 | 69 | 1017.0 |
| 20260509201506 | 57 | 9 | 0.0 | 2.0 | 0.00 | 0.00 | 0.00 | 68 | 1017.1 |